Location: Demre
(36.2444°N, 29.9850°E)
Time: 06:03:52
(UTC+00:00)

Cosmos 1656 Rocket - Pass Details

Date: 11 March 2026
Orbit: 795 x 843 km, 71.1° (Epoch: 21 April)

Event Time Altitude Azimuth Distance (km) Brightness Sun altitude
Rises 17:23:30 0° 208° (SSW) 3,348 7.1 -16.8°
Reaches altitude 10° 17:25:57 10° 212° (SSW) 2,412 6.4 -17.3°
Maximum altitude 17:31:26 63° 293° (WNW) 904 4.1 -18.4°
Drops below altitude 10° 17:36:51 10° 15° (NNE) 2,394 6.0 -19.5°
Sets 17:39:18 0° 18° (NNE) 3,322 6.7 -20.0°
